AEA7206 LEMH-LEAS

Flight info

Callsign AEA7206
Flight time N/A
Altitude 32000
Route MJV DCT ADX DCT DRAGO DCT PAPOS DCT UMURE N863 REBUL/N0448F330 M601 BLV M190 LASKU/N0403F230 M190 AMAKA
Aircraft E195/M-VGDW/C

Departure

Time 2026-04-10 15:11
Airport Menorca Airport (LEMH)

Arrival

Time N/A
Airport Asturias Airport (LEAS)
Time Latitude Longitude Altitude Speed Heading
2026-04-10 15:02 39.86575 4.22431 274 ft 0 kts 97°
2026-04-10 15:05 39.86575 4.22430 274 ft 0 kts 97°
2026-04-10 15:05 39.86577 4.22386 275 ft 8 kts 83°
2026-04-10 15:06 39.86555 4.22335 275 ft 6 kts 27°
2026-04-10 15:06 39.86549 4.22332 275 ft 0 kts 17°
2026-04-10 15:06 39.86552 4.22333 275 ft 1 kts 15°
2026-04-10 15:06 39.86573 4.22339 275 ft 4 kts
2026-04-10 15:07 39.86618 4.22349 276 ft 8 kts
2026-04-10 15:07 39.86684 4.22362 278 ft 10 kts
2026-04-10 15:07 39.86760 4.22378 280 ft 11 kts 10°
2026-04-10 15:07 39.86839 4.22396 281 ft 10 kts
2026-04-10 15:08 39.86908 4.22385 283 ft 10 kts 307°
2026-04-10 15:08 39.86930 4.22294 286 ft 11 kts 296°
2026-04-10 15:08 39.86999 4.22254 288 ft 12 kts 11°
2026-04-10 15:08 39.87095 4.22276 290 ft 15 kts
2026-04-10 15:09 39.87215 4.22301 292 ft 18 kts
2026-04-10 15:09 39.87302 4.22319 293 ft 7 kts
2026-04-10 15:09 39.87362 4.22326 294 ft 10 kts 347°
2026-04-10 15:09 39.87396 4.22246 296 ft 11 kts 278°
2026-04-10 15:10 39.87376 4.22133 297 ft 14 kts 239°
2026-04-10 15:10 39.87271 4.22070 295 ft 19 kts 191°
2026-04-10 15:10 39.87060 4.22028 293 ft 54 kts 188°
2026-04-10 15:10 39.86487 4.21918 285 ft 109 kts 189°
2026-04-10 15:11 39.85565 4.21724 276 ft 159 kts 191°
2026-04-10 15:11 39.84406 4.21458 652 ft 172 kts 186°
2026-04-10 15:11 39.83197 4.21311 1160 ft 177 kts 184°
2026-04-10 15:11 39.81921 4.21176 1768 ft 187 kts 183°
2026-04-10 15:12 39.80673 4.21057 2572 ft 187 kts 182°
2026-04-10 15:12 39.79281 4.20886 2942 ft 216 kts 186°
2026-04-10 15:12 39.77641 4.20563 2937 ft 255 kts 191°
2026-04-10 15:12 39.75890 4.20106 3554 ft 263 kts 193°
2026-04-10 15:13 39.74325 4.18913 4109 ft 269 kts 229°
2026-04-10 15:13 39.73199 4.16904 4705 ft 271 kts 236°
2026-04-10 15:13 39.72134 4.14906 5241 ft 273 kts 236°
2026-04-10 15:13 39.71032 4.12850 5783 ft 275 kts 237°
2026-04-10 15:14 39.69954 4.10844 6308 ft 276 kts 237°
2026-04-10 15:14 39.68844 4.08781 6852 ft 277 kts 237°
2026-04-10 15:14 39.67741 4.06733 7387 ft 279 kts 238°
2026-04-10 15:14 39.66625 4.04663 7943 ft 282 kts 238°
2026-04-10 15:15 39.65500 4.02578 8477 ft 284 kts 238°
2026-04-10 15:15 39.64350 4.00450 9034 ft 286 kts 238°
2026-04-10 15:15 39.63210 3.98340 9581 ft 289 kts 239°
2026-04-10 15:15 39.62049 3.96192 10135 ft 290 kts 238°
2026-04-10 15:16 39.60888 3.94046 10664 ft 291 kts 238°
2026-04-10 15:16 39.59731 3.91909 11196 ft 293 kts 238°
2026-04-10 15:16 39.58566 3.89758 11745 ft 294 kts 238°
2026-04-10 15:16 39.57384 3.87580 12302 ft 295 kts 238°
2026-04-10 15:17 39.56206 3.85407 12838 ft 297 kts 238°
2026-04-10 15:17 39.55015 3.83214 13379 ft 299 kts 237°
2026-04-10 15:17 39.53822 3.81018 13919 ft 303 kts 237°
2026-04-10 15:17 39.52589 3.78749 14496 ft 313 kts 237°
2026-04-10 15:18 39.51290 3.76362 15076 ft 323 kts 237°
2026-04-10 15:18 39.49973 3.73943 15631 ft 332 kts 237°
2026-04-10 15:18 39.48630 3.71479 16203 ft 340 kts 237°
2026-04-10 15:18 39.47252 3.68953 16769 ft 349 kts 237°
2026-04-10 15:19 39.45840 3.66366 17329 ft 357 kts 237°
2026-04-10 15:19 39.44405 3.63740 17879 ft 364 kts 237°
2026-04-10 15:19 39.42926 3.61034 18443 ft 371 kts 237°
2026-04-10 15:19 39.41427 3.58295 18997 ft 378 kts 237°
2026-04-10 15:20 39.39910 3.55526 19547 ft 384 kts 237°
2026-04-10 15:20 39.38354 3.52685 20098 ft 391 kts 236°
2026-04-10 15:20 39.36767 3.49794 20650 ft 395 kts 237°